Flag for U.S.A. Weather past 2 weeks in Oakland, California, U.S.A.

Now
61 °F

Drizzle. Low clouds.


Feels Like: 61 °F
Forecast: 61 / 73 °F
Wind: 6 mph from Southwest

Location: Metro Oakland International Airport

Current Time: Aug 29, 2014 at 7:25:03 AM

Latest Report: Aug 29, 2014 at 6:53 AM


Visibility: 10 mi

Pressure: 29.94 "Hg

Humidity: 87%

Dew point: 57 °F

Location of OaklandLocation

Historic Weather in Oakland — Graph

°F

Oakland temperature yesterday

Maximum temperature yesterday: 74 °F (at 2:53 PM)
Minimum temperature yesterday: 60 °F (at 1:53 AM)
Average temperature yesterday: 65 °F

Past Weeks' High & Low Weather Summary

 TemperatureHumidityPressure
High76 °F (Aug 27, 12:53 PM)87% (Aug 15, 12:53 AM)30.08 "Hg (Aug 15, 12:53 AM)
Low59 °F (Aug 15, 12:53 AM)50% (Aug 26, 1:53 PM)29.81 "Hg (Aug 19, 6:53 PM)
Average65 °F72%29.94 "Hg
* Reported Aug 14 5:53 AM — Aug 29 5:53 AM, Oakland, Weather by CustomWeather, © 2014

Note: Actual official high and low records may vary slightly from our data, if they occured in-between our weather recording intervals... More about our weather records

Advertising

Oakland weather history for previous 24 hours

 ConditionsComfort  
Time TempWeatherWind HumidityBarometerVisibility
5:53 AM
Aug 29
61 °FLow clouds.7 mph83%29.94 "Hg10 mi
4:53 AM63 °FOvercast.10 mph78%29.95 "Hg10 mi
3:53 AM63 °FMostly cloudy.7 mph78%29.95 "Hg10 mi
2:53 AM62 °FOvercast.No wind83%29.96 "Hg10 mi
1:53 AM62 °FLow clouds.No wind83%29.96 "Hg10 mi
12:53 AM62 °FLow clouds.8 mph83%29.97 "Hg10 mi
11:53 PM
Aug 28
62 °FLow clouds.10 mph83%29.98 "Hg10 mi
10:53 PM62 °FPassing clouds.10 mph83%29.97 "Hg10 mi
9:53 PM62 °FPassing clouds.9 mph83%29.98 "Hg10 mi
8:53 PM63 °FPassing clouds.14 mph81%29.97 "Hg10 mi
7:53 PM65 °FPassing clouds.12 mph76%29.94 "Hg10 mi
6:53 PM67 °FPassing clouds.8 mph71%29.94 "Hg10 mi
5:53 PM69 °FPassing clouds.16 mph66%29.95 "Hg10 mi
4:53 PM71 °FPassing clouds.16 mph63%29.96 "Hg10 mi
3:53 PM74 °FPassing clouds.15 mph60%29.97 "Hg10 mi
2:53 PM74 °FPassing clouds.13 mph56%29.98 "Hg10 mi
1:53 PM73 °FSunny.12 mph57%30.01 "Hg10 mi
12:53 PM71 °FPassing clouds.8 mph61%30.03 "Hg10 mi
11:53 AM67 °FPassing clouds.7 mph71%30.06 "Hg10 mi
10:53 AM63 °FMore clouds than sun.No wind81%30.08 "Hg10 mi
9:53 AM63 °FLow clouds.5 mph81%30.08 "Hg10 mi
8:53 AM63 °FLow clouds.7 mph78%30.08 "Hg10 mi
7:53 AM63 °FOvercast.5 mph78%30.07 "Hg10 mi
Weather by CustomWeather, © 2014

See weather overviewHow to use our weather pages